スコッティ彗星

244P/Scotti (2012)

English version
Home page
Updated on April 28, 2012

---------------------------------------------------------------------

・ プロフィール

符号 244P/2010 Q1
検出日 2010年8月19日
検出光度 20.9等
検出者 J. V. Scotti (Kitt Peak)

・ 写真集

・ 軌道要素

The following orbital elements are taken from MPC 75729:

Epoch 2012 Feb. 3.0 TT = JDT 2455960.5
T 2012 Jan. 20.3178 TT                                  MPC
q   3.918193             (2000.0)            P               Q
n   0.0909426      Peri.   92.5916      +0.0566090      -0.9983884
a   4.897314       Node   354.1586      +0.8996345      +0.0527513
e   0.199930       Incl.    2.2591      +0.4329587      +0.0209278
P  10.8
From 321 observations 2000-2011, mean residual 0".6.

・ 光度変化

        m1 = 3.0 + 5 logΔ + 20.0 log r(t - 100)

---------------------------------------------------------------------

軌道要素はMPCのEphemerides and Orbital Elementsに掲載されたものです。
光度グラフはComet for Windowsで作成したものです。

---------------------------------------------------------------------

Copyright(C) Seiichi Yoshida (comet@aerith.net). All rights reserved.